Time,TemperatureF,DewpointF,PressureIn,WindDirection,WindDirectionDegrees,WindSpeedMPH,WindSpeedGustMPH,Humidity,HourlyPrecipIn,Conditions,Clouds,dailyrainin,SolarRadiationWatts/m^2,SoftwareType,DateUTC
2013-05-21 00:01:00,68.0,37.0,-100.00,NE,37,3.0,5.0,32,0.00,,,0.00,0.000000,,2013-05-21 07:01:00,
2013-05-21 00:11:00,68.0,37.0,-100.00,NE,37,3.0,5.0,32,0.00,,,0.00,0.000000,,2013-05-21 07:11:00,
2013-05-21 00:32:00,67.0,38.0,-100.00,ENE,69,3.0,7.0,34,0.00,,,0.00,0.000000,,2013-05-21 07:32:00,
2013-05-21 00:42:00,67.0,38.0,-100.00,ENE,69,3.0,7.0,34,0.00,,,0.00,0.000000,,2013-05-21 07:42:00,
2013-05-21 00:52:00,67.0,38.0,-100.00,ENE,69,3.0,7.0,34,0.00,,,0.00,0.000000,,2013-05-21 07:52:00,
2013-05-21 01:01:00,67.0,38.0,-100.00,ENE,69,3.0,7.0,34,0.00,,,0.00,0.000000,,2013-05-21 08:01:00,
2013-05-21 01:11:00,67.0,38.0,-100.00,ENE,69,3.0,7.0,34,0.00,,,0.00,0.000000,,2013-05-21 08:11:00,
2013-05-21 02:33:00,64.0,37.0,-100.00,ENE,60,1.0,5.0,36,-99.99,,,0.00,0.000000,,2013-05-21 09:33:00,
2013-05-21 02:42:00,64.0,37.0,-100.00,ENE,60,1.0,5.0,36,-99.99,,,0.00,0.000000,,2013-05-21 09:42:00,
2013-05-21 02:53:00,64.0,37.0,-100.00,ENE,60,1.0,5.0,36,-99.99,,,0.00,0.000000,,2013-05-21 09:53:00,
2013-05-21 03:02:00,64.0,37.0,-100.00,ENE,60,1.0,5.0,36,-99.99,,,0.00,0.000000,,2013-05-21 10:02:00,
2013-05-21 03:12:00,64.0,37.0,-100.00,ENE,60,1.0,5.0,36,-99.99,,,0.00,0.000000,,2013-05-21 10:12:00,
2013-05-21 03:33:00,63.0,37.0,-100.00,SW,218,1.0,4.0,38,0.00,,,0.00,0.000000,,2013-05-21 10:33:00,
2013-05-21 03:42:00,63.0,37.0,-100.00,SW,218,1.0,4.0,38,0.00,,,0.00,0.000000,,2013-05-21 10:42:00,
2013-05-21 03:52:00,63.0,37.0,-100.00,SW,218,1.0,4.0,38,0.00,,,0.00,0.000000,,2013-05-21 10:52:00,
2013-05-21 04:02:00,63.0,37.0,-100.00,SW,218,1.0,4.0,38,0.00,,,0.00,0.000000,,2013-05-21 11:02:00,
2013-05-21 04:11:00,63.0,37.0,-100.00,SW,218,1.0,4.0,38,0.00,,,0.00,0.000000,,2013-05-21 11:11:00,
2013-05-21 04:42:00,63.0,36.0,-100.00,ENE,75,2.0,4.0,37,0.00,,,0.00,0.000000,,2013-05-21 11:42:00,
2013-05-21 04:52:00,63.0,36.0,-100.00,ENE,75,2.0,4.0,37,0.00,,,0.00,0.000000,,2013-05-21 11:52:00,
2013-05-21 05:01:00,63.0,36.0,-100.00,ENE,75,2.0,4.0,37,0.00,,,0.00,0.000000,,2013-05-21 12:01:00,
2013-05-21 05:11:00,63.0,36.0,-100.00,ENE,75,2.0,4.0,37,0.00,,,0.00,0.000000,,2013-05-21 12:11:00,
2013-05-21 05:32:00,63.0,37.0,-100.00,NNE,30,2.0,4.0,38,0.00,,,0.00,0.000000,,2013-05-21 12:32:00,
2013-05-21 05:42:00,63.0,37.0,-100.00,NNE,30,2.0,4.0,38,0.00,,,0.00,0.000000,,2013-05-21 12:42:00,
2013-05-21 05:52:00,63.0,37.0,-100.00,NNE,30,2.0,4.0,38,0.00,,,0.00,0.000000,,2013-05-21 12:52:00,
2013-05-21 06:01:00,63.0,37.0,-100.00,NNE,30,2.0,4.0,38,0.00,,,0.00,0.000000,,2013-05-21 13:01:00,
2013-05-21 06:11:00,63.0,37.0,-100.00,NNE,30,2.0,4.0,38,0.00,,,0.00,0.000000,,2013-05-21 13:11:00,
2013-05-21 06:32:00,63.0,38.0,-100.00,NE,50,1.0,4.0,39,0.00,,,-99.99,5.000000,,2013-05-21 13:32:00,
2013-05-21 06:42:00,63.0,38.0,-100.00,NE,50,1.0,4.0,39,0.00,,,-99.99,5.000000,,2013-05-21 13:42:00,
2013-05-21 06:52:00,63.0,38.0,-100.00,NE,50,1.0,4.0,39,0.00,,,-99.99,5.000000,,2013-05-21 13:52:00,
2013-05-21 07:01:00,63.0,38.0,-100.00,NE,50,1.0,4.0,39,0.00,,,-99.99,5.000000,,2013-05-21 14:01:00,
2013-05-21 07:11:00,63.0,38.0,-100.00,NE,50,1.0,4.0,39,0.00,,,-99.99,5.000000,,2013-05-21 14:11:00,
2013-05-21 07:42:00,74.0,43.0,-100.00,North,8,1.0,3.0,33,0.00,,,-99.99,131.000000,,2013-05-21 14:42:00,
2013-05-21 09:32:00,84.0,41.0,-100.00,SW,236,5.0,7.0,22,-99.99,,,0.00,531.000000,,2013-05-21 16:32:00,
2013-05-21 09:42:00,84.0,41.0,-100.00,SW,236,5.0,7.0,22,-99.99,,,0.00,531.000000,,2013-05-21 16:42:00,
2013-05-21 09:52:00,84.0,41.0,-100.00,SW,236,5.0,7.0,22,-99.99,,,0.00,531.000000,,2013-05-21 16:52:00,
2013-05-21 10:02:00,84.0,41.0,-100.00,SW,236,5.0,7.0,22,-99.99,,,0.00,531.000000,,2013-05-21 17:02:00,
2013-05-21 10:44:00,86.0,41.0,-100.00,WSW,240,6.0,11.0,21,0.00,,,0.00,716.000000,,2013-05-21 17:44:00,
2013-05-21 10:52:00,86.0,41.0,-100.00,WSW,240,6.0,11.0,21,0.00,,,0.00,716.000000,,2013-05-21 17:52:00,
2013-05-21 11:01:00,86.0,41.0,-100.00,WSW,240,6.0,11.0,21,0.00,,,0.00,716.000000,,2013-05-21 18:01:00,
2013-05-21 11:11:00,86.0,41.0,-100.00,WSW,240,6.0,11.0,21,0.00,,,0.00,716.000000,,2013-05-21 18:11:00,
2013-05-21 11:32:00,86.0,40.0,-100.00,WSW,249,7.0,12.0,20,0.00,,,0.00,840.000000,,2013-05-21 18:32:00,
2013-05-21 11:42:00,86.0,40.0,-100.00,WSW,249,7.0,12.0,20,0.00,,,0.00,840.000000,,2013-05-21 18:42:00,
2013-05-21 11:52:00,86.0,40.0,-100.00,WSW,249,7.0,12.0,20,0.00,,,0.00,840.000000,,2013-05-21 18:52:00,
2013-05-21 12:01:00,86.0,40.0,-100.00,WSW,249,7.0,12.0,20,0.00,,,0.00,840.000000,,2013-05-21 19:01:00,
2013-05-21 12:11:00,86.0,40.0,-100.00,WSW,249,7.0,12.0,20,0.00,,,0.00,840.000000,,2013-05-21 19:11:00,
2013-05-21 12:32:00,88.0,38.0,-100.00,WSW,250,6.0,15.0,17,0.00,,,-99.99,974.000000,,2013-05-21 19:32:00,
2013-05-21 12:42:00,88.0,38.0,-100.00,WSW,250,6.0,15.0,17,0.00,,,-99.99,974.000000,,2013-05-21 19:42:00,
2013-05-21 12:52:00,88.0,38.0,-100.00,WSW,250,6.0,15.0,17,0.00,,,-99.99,974.000000,,2013-05-21 19:52:00,
2013-05-21 13:03:00,88.0,38.0,-100.00,WSW,250,6.0,15.0,17,0.00,,,-99.99,974.000000,,2013-05-21 20:03:00,
2013-05-21 13:11:00,88.0,38.0,-100.00,WSW,250,6.0,15.0,17,0.00,,,-99.99,974.000000,,2013-05-21 20:11:00,
2013-05-21 13:32:00,90.0,36.0,-100.00,SW,235,6.0,11.0,15,0.00,,,0.00,921.000000,,2013-05-21 20:32:00,
2013-05-21 13:42:00,90.0,36.0,-100.00,SW,235,6.0,11.0,15,0.00,,,0.00,921.000000,,2013-05-21 20:42:00,
2013-05-21 13:52:00,90.0,36.0,-100.00,SW,235,6.0,11.0,15,0.00,,,0.00,921.000000,,2013-05-21 20:52:00,
2013-05-21 14:01:00,90.0,36.0,-100.00,SW,235,6.0,11.0,15,0.00,,,0.00,921.000000,,2013-05-21 21:01:00,
2013-05-21 14:11:00,90.0,36.0,-100.00,SW,235,6.0,11.0,15,0.00,,,0.00,921.000000,,2013-05-21 21:11:00,
2013-05-21 14:33:00,91.0,35.0,-100.00,West,260,5.0,12.0,14,0.00,,,-99.99,970.000000,,2013-05-21 21:33:00,
2013-05-21 14:43:00,91.0,35.0,-100.00,West,260,5.0,12.0,14,0.00,,,-99.99,970.000000,,2013-05-21 21:43:00,
2013-05-21 14:54:00,91.0,35.0,-100.00,West,260,5.0,12.0,14,0.00,,,-99.99,970.000000,,2013-05-21 21:54:00,
2013-05-21 15:02:00,91.0,35.0,-100.00,West,260,5.0,12.0,14,0.00,,,-99.99,970.000000,,2013-05-21 22:02:00,
2013-05-21 15:12:00,91.0,35.0,-100.00,West,260,5.0,12.0,14,0.00,,,-99.99,970.000000,,2013-05-21 22:12:00,
2013-05-21 15:33:00,90.0,36.0,-100.00,West,261,6.0,15.0,15,0.00,,,0.00,885.000000,,2013-05-21 22:33:00,
2013-05-21 15:42:00,90.0,36.0,-100.00,West,261,6.0,15.0,15,0.00,,,0.00,885.000000,,2013-05-21 22:42:00,
2013-05-21 15:52:00,90.0,36.0,-100.00,West,261,6.0,15.0,15,0.00,,,0.00,885.000000,,2013-05-21 22:52:00,
2013-05-21 16:02:00,90.0,36.0,-100.00,West,261,6.0,15.0,15,0.00,,,0.00,885.000000,,2013-05-21 23:02:00,
2013-05-21 16:12:00,90.0,36.0,-100.00,West,261,6.0,15.0,15,0.00,,,0.00,885.000000,,2013-05-21 23:12:00,
2013-05-21 16:32:00,91.0,33.0,-100.00,West,275,6.0,16.0,13,0.00,,,0.00,745.000000,,2013-05-21 23:32:00,
2013-05-21 16:42:00,91.0,33.0,-100.00,West,275,6.0,16.0,13,0.00,,,0.00,745.000000,,2013-05-21 23:42:00,
2013-05-21 16:52:00,91.0,33.0,-100.00,West,275,6.0,16.0,13,0.00,,,0.00,745.000000,,2013-05-21 23:52:00,
2013-05-21 17:01:00,91.0,33.0,-100.00,West,275,6.0,16.0,13,0.00,,,0.00,745.000000,,2013-05-22 00:01:00,
2013-05-21 17:11:00,91.0,33.0,-100.00,West,275,6.0,16.0,13,0.00,,,0.00,745.000000,,2013-05-22 00:11:00,
2013-05-21 18:32:00,87.0,24.0,-100.00,NW,320,5.0,12.0,10,-99.99,,,0.00,358.000000,,2013-05-22 01:32:00,
2013-05-21 18:42:00,87.0,24.0,-100.00,NW,320,5.0,12.0,10,-99.99,,,0.00,358.000000,,2013-05-22 01:42:00,
2013-05-21 18:52:00,87.0,24.0,-100.00,NW,320,5.0,12.0,10,-99.99,,,0.00,358.000000,,2013-05-22 01:52:00,
2013-05-21 19:01:00,87.0,24.0,-100.00,NW,320,5.0,12.0,10,-99.99,,,0.00,358.000000,,2013-05-22 02:01:00,
2013-05-21 19:11:00,87.0,24.0,-100.00,NW,320,5.0,12.0,10,-99.99,,,0.00,358.000000,,2013-05-22 02:11:00,
2013-05-21 19:32:00,82.0,15.0,-100.00,WSW,252,4.0,10.0,8,0.00,,,0.00,149.000000,,2013-05-22 02:32:00,
2013-05-21 19:42:00,82.0,15.0,-100.00,WSW,252,4.0,10.0,8,0.00,,,0.00,149.000000,,2013-05-22 02:42:00,
2013-05-21 19:52:00,82.0,15.0,-100.00,WSW,252,4.0,10.0,8,0.00,,,0.00,149.000000,,2013-05-22 02:52:00,
2013-05-21 20:01:00,82.0,15.0,-100.00,WSW,252,4.0,10.0,8,0.00,,,0.00,149.000000,,2013-05-22 03:01:00,
2013-05-21 20:11:00,82.0,15.0,-100.00,WSW,252,4.0,10.0,8,0.00,,,0.00,149.000000,,2013-05-22 03:11:00,
2013-05-21 20:33:00,77.0,24.0,-100.00,WSW,247,2.0,9.0,14,0.00,,,0.00,12.000000,,2013-05-22 03:33:00,
2013-05-21 20:43:00,77.0,24.0,-100.00,WSW,247,2.0,9.0,14,0.00,,,0.00,12.000000,,2013-05-22 03:43:00,
2013-05-21 20:53:00,77.0,24.0,-100.00,WSW,247,2.0,9.0,14,0.00,,,0.00,12.000000,,2013-05-22 03:53:00,
2013-05-21 21:03:00,77.0,24.0,-100.00,WSW,247,2.0,9.0,14,0.00,,,0.00,12.000000,,2013-05-22 04:03:00,
2013-05-21 21:12:00,77.0,24.0,-100.00,WSW,247,2.0,9.0,14,0.00,,,0.00,12.000000,,2013-05-22 04:12:00,
2013-05-21 21:33:00,71.0,25.0,-100.00,SSW,207,3.0,4.0,18,0.00,,,0.00,0.000000,,2013-05-22 04:33:00,
2013-05-21 21:43:00,71.0,25.0,-100.00,SSW,207,3.0,4.0,18,0.00,,,0.00,0.000000,,2013-05-22 04:43:00,
2013-05-21 21:53:00,71.0,25.0,-100.00,SSW,207,3.0,4.0,18,0.00,,,0.00,0.000000,,2013-05-22 04:53:00,
2013-05-21 22:02:00,71.0,25.0,-100.00,SSW,207,3.0,4.0,18,0.00,,,0.00,0.000000,,2013-05-22 05:02:00,
2013-05-21 22:11:00,71.0,25.0,-100.00,SSW,207,3.0,4.0,18,0.00,,,0.00,0.000000,,2013-05-22 05:11:00,
2013-05-21 22:32:00,69.0,41.0,-100.00,SW,218,2.0,5.0,36,0.00,,,-99.99,0.000000,,2013-05-22 05:32:00,
2013-05-21 22:42:00,69.0,41.0,-100.00,SW,218,2.0,5.0,36,0.00,,,-99.99,0.000000,,2013-05-22 05:42:00,
2013-05-21 22:52:00,69.0,41.0,-100.00,SW,218,2.0,5.0,36,0.00,,,-99.99,0.000000,,2013-05-22 05:52:00,
2013-05-21 23:01:00,69.0,41.0,-100.00,SW,218,2.0,5.0,36,0.00,,,-99.99,0.000000,,2013-05-22 06:01:00,
2013-05-21 23:11:00,69.0,41.0,-100.00,SW,218,2.0,5.0,36,0.00,,,-99.99,0.000000,,2013-05-22 06:11:00,
2013-05-21 23:32:00,66.0,38.0,-100.00,WNW,296,2.0,9.0,36,0.00,,,0.00,0.000000,,2013-05-22 06:32:00,
2013-05-21 23:42:00,66.0,38.0,-100.00,WNW,296,2.0,9.0,36,0.00,,,0.00,0.000000,,2013-05-22 06:42:00,
2013-05-21 23:52:00,66.0,38.0,-100.00,WNW,296,2.0,9.0,36,0.00,,,0.00,0.000000,,2013-05-22 06:52:00,